www.pogodaiklimat.ru

Погода и климат >> Архив погоды >> Китай >> Хэйлунцзян >> Хума


ПОГОДА в Хума

  • Прогноз погоды в Хума
  • Монитор погоды в Хума

АРХИВ ПОГОДЫ в Хума

Время (UTC), дата Ветер
(напр.,м/с)
 
Видим.   Явления Облачность Т
(С)
Тd
(С)
f
(%)
Тe
(С)
Тes
(С)
Комфортность P
(гПа)
Po
(гПа)
Тmin
(С)
Tmax
(С)
R
(мм)
R24
(мм)
S
(см)
12 16.07 С 2 30 км слаб. дождь ясно +19.9 +18.7 93 +24 +24 комфорт 1006.1 985.8 0.0
15 16.07 СЗ 1 900 м в посл. час дождь н/о +18.5 +18.0 97 +20 +20 1005.6 984.7
18 16.07 С 2 1800 м дымка ?/? +18.0 +17.7 98 +19 +19 1005.6 985.3 +24.3
21 16.07 С 2 н/о дымка н/о +18.4 +18.1 98 +20 +20 1005.3 984.4
00 17.07 С 3 30 км 9/9 600 м
[]
+20.8 +18.7 88 +25 +26 комфорт 1005.3 985.1 0.2
03 17.07 С 3 4700 м дождь 10/10 600 м
[]
+20.6 +19.6 94 +25 +25 комфорт 1005.4 984.7
06 17.07 С 4 30 км {дождь} 6/6 600 м
[]
+25.3 +19.4 70 +31 +34 очень
душно
1003.5 983.4 +17.5 3
09 17.07 С 4 30 км 9/9 600 м
[]
+25.2 +17.7 63 +29 +30 душно 1003.1 982.7
12 17.07 С 5 30 км 9/9 600 м
[]
+20.9 +18.7 87 +25 +25 комфорт 1004.7 984.5
15 17.07 С 4 30 км ?/? +18.9 +17.4 91 +20 +20 1005.1 984.3
18 17.07 З 2 30 км н/о +18.1 +17.3 95 +19 +19 1004.6 984.5 +26.2
21 17.07 СЗ 1 23 км н/о +18.5 +17.5 94 +20 +20 1005.1 984.2
00 18.07 С 3 30 км 4/4 600 м
[]
+21.1 +18.1 83 +25 +29 комфорт 1004.7 984.5
03 18.07 С 3 30 км 3/3 600 м
[]
+25.4 +19.5 70 +31 +40 очень
душно
1004.1 983.7
06 18.07 С 3 30 км ясно +28.0 +16.6 50 +32 +42 душно 1002.6 982.6 +17.9
09 18.07 З 1 30 км ясно +29.4 +17.2 48 +33 +37 душно 1001.7 981.6
12 18.07 Ю 2 25 км 1/1
[]
+20.8 +18.4 86 +26 +26 душно 1002.3 982.2
15 18.07 Ю 2 22 км н/о +16.7 +15.7 94 +17 +17 1002.7 981.8
18 18.07 ЮЗ 2 17 км н/о +15.3 +14.5 95 +15 +15 1002.2 982.1 +29.5
21 18.07 Ю 1 17 км н/о +16.4 +15.9 97 +17 +17 1002.0 981.1
00 19.07 Ю 2 30 км 6/6
[]
+23.3 +18.8 76 +30 +33 очень
душно
1002.2 982.1
03 19.07 Ю 4 30 км 8/8
[]
+29.8 +20.6 58 +37 +39 очень
душно
1001.3 981.3
06 19.07 Ю 3 30 км 9/9 600 м
[]
+28.9 +19.5 57 +35 +36 очень
душно
1001.0 981.0 +14.3
09 19.07 Ю 2 30 км 9/9 600 м
[]
+26.2 +22.5 80 +34 +35 очень
душно
1001.8 981.5
12 19.07 ЮЗ 2 30 км 8/8 600 м
[]
+23.7 +20.4 82 +29 +29 душно 1002.5 982.5
15 19.07 З 1 30 км в посл. час дождь н/о +21.4 +20.0 92 +27 +27 душно 1004.2 983.6
18 19.07 СЗ 1 18 км слаб. дождь ?/? +20.6 +19.8 95 +26 +26 душно 1003.2 983.3 +31.3 1
21 19.07 ЮВ 2 30 км н/о +21.0 +19.1 89 +26 +26 душно 1003.2 982.6
00 20.07 ЮВ 3 30 км 10/10 600 м
[]
+21.4 +20.0 92 +27 +27 душно 1003.1 983.1 0.2
03 20.07 В 3 10 км слаб. дождь 9/9 600 м
[]
+23.0 +21.8 93 +31 +32 очень
душно
1001.1 980.6
06 20.07 В 2 17 км слаб. дождь 9/9 600 м
[]
+22.9 +21.4 91 +30 +32 очень
душно
1002.3 982.2 +19.7 2
09 20.07 ЮВ 2 30 км {дождь} 9/9 600 м
[]
+22.7 +20.4 87 +29 +30 очень
душно
1001.1 980.6
12 20.07 Ю 2 16 км {дождь} 9/9 600 м
[]
+21.6 +20.8 95 +27 +27 душно 1001.8 981.7 2
15 20.07 ЮЗ 1 12 км в посл. час дождь н/о +21.8 +20.4 92 +28 +28 душно 1001.3 980.7
18 20.07 Ю 1 10 км н/о +21.4 +20.2 93 +27 +27 душно 1000.2 980.2 +23.9
21 20.07 ЮВ 3 10 км н/о +22.2 +21.2 94 +29 +29 очень
душно
1000.0 979.5
00 21.07 ЮВ 2 6000 м слаб. дождь 9/9 600 м
[]
+22.9 +21.5 92 +31 +31 очень
душно
1000.6 980.6 0.2
03 21.07 ЮВ 5 30 км в посл. час дождь 9/9 600 м
[]
+25.1 +22.0 83 +32 +33 очень
душно
999.9 979.6
06 21.07 Ю 5 22 км {дождь} 9/9 600 м
[]
+28.3 +22.8 72 +38 +38 очень
душно
998.5 978.7 +20.2 0.2
09 21.07 Ю 6 29 км в посл. час дождь 9/9 600 м
[]
+25.2 +22.1 83 +33 +33 очень
душно
999.8 979.5
12 21.07 ЮВ 2 30 км {дождь} 9/9 600 м
[]
+22.8 +20.3 86 +30 +30 очень
душно
999.4 979.5 2
15 21.07 ЮВ 3 30 км н/о +21.7 +20.0 90 +27 +27 душно 999.4 978.9
18 21.07 ЮВ 2 22 км в посл. час дождь ?/? +21.2 +20.2 94 +26 +26 душно 998.3 978.5 +28.4 0.9
21 21.07 ЮВ 2 21 км в посл. час дождь н/о +21.3 +20.3 94 +26 +26 душно 997.3 976.8
00 22.07 ЮВ 2 22 км 9/9 600 м
[]
+22.4 +20.9 91 +29 +30 очень
душно
996.5 976.6 0.9
03 22.07 ЮВ 3 28 км {дождь} ясно +25.9 +20.9 74 +32 +46 очень
душно
995.0 974.9
06 22.07 С 2 30 км слаб. дождь 9/9 600 м
[]
+24.9 +21.2 80 +31 +33 очень
душно
994.2 974.4 +21.1 16
09 22.07 СВ 4 30 км {дождь} 8/8 600 м
[]
+25.6 +21.9 80 +33 +33 очень
душно
993.9 973.8
12 22.07 С 6 17 км слаб. дождь 9/9 600 м
[]
+20.6 +19.1 91 +25 +25 комфорт 995.4 975.4 0.7
15 22.07 СЗ 4 30 км н/о +17.2 +15.9 92 +17 +17 996.1 975.3
18 22.07 СЗ 5 30 км ?/? +15.9 +14.8 93 +15 +15 996.7 976.6 +26.0 0.7
21 22.07 С 3 30 км н/о +15.5 +14.0 91 +15 +15 997.6 976.7
00 23.07 СЗ 6 30 км 9/9 600 м
[]
+18.2 +14.9 81 +18 +18 997.8 977.7 0.7
03 23.07 СЗ 5 30 км 9/9 600 м
[]
+19.6 +14.8 74 +21 +22 комфорт 998.5 977.9
06 23.07 С 4 30 км 9/9 600 м
[]
+21.0 +15.3 70 +24 +25 комфорт 999.3 979.1 +15.0
09 23.07 СЗ 3 30 км 9/9 600 м
[]
+19.2 +14.7 75 +21 +21 комфорт 1000.5 979.8

 

Местоположение метеостанции Хума (Хэйлунцзян, Китай): широта 51.72 долгота 126.65 высота над уровнем моря 179 м.

В архиве по умолчанию представлена погода в Хума за последнюю неделю. Архивные данные за месяц целиком и за предыдущие месяцы, начиная с января 2011 года, Вы можете получить, выбрав интересующий диапазон дат из раскрывающегося списка и нажав кнопку "Ввод!".


*Определитесь, кто Вы:
робот инопланетянин человек

Внимание! Время в таблицах - всемирное. Для получения местного времени необходимо прибавить поправку, которая равна 8 ч.

Смотрите также архив погоды в соседних городах и на ближайших метеорологических станциях:

Погода в Саскале (Амурская область, Россия) (19 км)
Погода в Шимановске (Амурская область, Россия) (71 км)
Погода в Свободном (Амурская область, Россия) (105 км)
Погода в Сергеевке (Амурская область, Россия) (114 км)
Погода в Черняево (Амурская область, Россия) (126 км)
Погода в Мазаново (Амурская область, Россия) (149 км)
Погода в Белогорске (Амурская область, Россия) (151 км)
Погода в Тыгде (Амурская область, Россия) (155 км)
Погода в Благовещенске (Амурская область, Россия) (169 км)
Погода в Айгуне (Хэйлунцзян, Китай) (173 км)

Пояснения к столбцам:

Ветер - указаны скорость ветра в м/с - средняя за 10 мин, порывы в срок и между сроками (в фигурных скобках) и направление, откуда дует ветер: С - северный, СВ - северо-восточный, В - восточный, ЮВ - юго-восточный, Ю - южный, ЮЗ - юго-западный, З - западный, СЗ - северо-западный.
Видимость - горизонтальная дальность видимости в метрах или километрах. При видимости от 1 до 10 км при отсутствии осадков обычно наблюдается дымка, при ухудшении видимости до 1 км и менее - туман. В сухую погоду видимость может ухудшаться дымом, пылью или мглою.
Явления - указаны атмосферные явления, наблюдавшиеся в срок или в последний час перед сроком; фигурными скобками обозначены явления, наблюдавшиеся между сроками (за 1-3 часа до срока); квадратными скобками обозначены град или гололедные отложения с указанием их диаметра в мм.
Облачность - указаны через наклонную черту общая и нижняя облачность в баллах и высота нижней границы облаков в метрах; квадратными скобками обозначены формы облаков: Ci - перистые, Cs - перисто-слоистые, Cc - перисто-кучевые, Ac - высококучевые, As - высокослоистые, Sc - слоисто-кучевые, Ns - слоисто-дождевые, Cu - кучевые, Cb - кучево-дождевые. Подробнее классификацию облаков см. в Атласе облаков (PDF).
T - Температура воздуха - температура, измеренная на высоте 2 м над землей.
Td - Температура точки росы - температура, при понижении до которой содержащийся в воздухе водяной пар достигнет насыщения.
f - Относительная влажность воздуха - влажноcть воздуха, измеренная на высоте 2 м над землей.
Te - Эффективная температура - температура, которую ощущает одетый по сезону человек в тени. Характеристика душности погоды. При расчете учитывается влияние влажности воздуха и скорости ветра на теплоощущения человека.
Tes - Эффективная температура на солнце - температура, которую ощущает человек, с поправкой на солнечный нагрев. Характеристика знойности погоды. Зависит от высоты солнца над горизонтом, облачности и скорости ветра. Ночью, в пасмурную погоду, а также при ветре 12 м/с и более поправка равна нулю.
P - Атмосферное давление - приведенное к уровню моря атмосферное давление.
Po - Атмосферное давление - измеренное на уровне метеостанции атмосферное давление.
Tmin - Минимальная температура - минимум температуры воздуха на высоте 2 м над землей.
Tmax - Максимальная температура - максимум температуры воздуха на высоте 2 м над землей.
R - Количество осадков - Количество выпавших осадков за период времени, мм. При наведении курсора мыши на число - период времени, за который выпало указанное количество осадков.
R24 - Количество осадков - Количество выпавших осадков за 24 часа, мм.
S - Снежный покров - Высота снежного покрова, см. При наведении курсора мыши на число - состояние снежного покрова и степень покрытия местности в баллах.